HSNN4 Weather Reports


time (UTC)temp
C
wind
direction
speed
KPH
gust
KPH
rain 1hr
cm
rain 24hr
cm
rain mn
cm
humidity
%
barometer
mb
20260506143053 21 67 1.6 11.3 0.00 0.00 0.00 64 1009.8
20260506143033 21 172 0.0 0.0 0.00 0.00 0.00 55 1007.9
20260506141555 21 176 3.2 11.3 0.00 0.00 0.00 64 1009.8
20260506141524 21 199 0.0 0.0 0.00 0.00 0.00 55 1008.0
20260506140059 21 96 3.2 14.5 0.00 0.00 0.00 64 1009.8
20260506140023 21 198 0.0 0.0 0.00 0.00 0.00 55 1008.0
20260506134550 21 345 6.4 11.3 0.00 0.00 0.00 64 1009.9
20260506134524 20 158 0.0 0.0 0.00 0.00 0.00 56 1008.1
20260506133048 21 65 3.2 12.9 0.00 0.00 0.00 65 1009.9
20260506133023 20 214 0.0 0.0 0.00 0.00 0.00 57 1008.1
20260506131548 20 63 1.6 9.7 0.00 0.00 0.00 66 1010.1
20260506131523 20 203 0.0 0.0 0.00 0.00 0.00 58 1008.2
20260506130048 20 58 1.6 9.7 0.00 0.00 0.00 67 1009.8
20260506130025 20 207 0.0 0.0 0.00 0.00 0.00 59 1008.0
20260506124544 20 32 0.0 8.0 0.00 0.00 0.00 69 1009.8
20260506124526 20 161 0.0 0.0 0.00 0.00 0.00 61 1008.0
20260506123044 19 72 1.6 11.3 0.00 0.00 0.00 70 1009.9
20260506123024 19 217 0.0 0.0 0.00 0.00 0.00 61 1008.1
20260506121542 19 337 1.6 12.9 0.00 0.00 0.00 70 1010.1
20260506121520 19 247 0.0 0.0 0.00 0.00 0.00 62 1008.1
20260506120045 19 64 3.2 8.0 0.00 0.00 0.00 70 1010.4
20260506120032 19 197 0.0 0.0 0.00 0.00 0.00 62 1008.5
20260506114549 19 109 0.0 12.9 0.00 0.00 0.00 72 1010.2
20260506114524 18 169 0.0 0.0 0.00 0.00 0.00 64 1008.5
20260506113040 18 25 1.6 9.7 0.00 0.00 0.00 73 1010.2
20260506113019 18 229 0.0 0.0 0.00 0.00 0.00 66 1008.5
20260506111542 18 68 0.0 8.0 0.00 0.00 0.00 75 1010.3
20260506111519 18 200 0.0 0.0 0.00 0.00 0.00 68 1008.5
20260506110037 18 91 0.0 4.8 0.00 0.00 0.00 76 1010.2
20260506110023 18 195 0.0 0.0 0.00 0.00 0.00 69 1008.3
20260506104542 18 65 0.0 3.2 0.00 0.00 0.00 76 1010.1
20260506104518 18 223 0.0 0.0 0.00 0.00 0.00 69 1008.3
20260506103035 18 77 0.0 6.4 0.00 0.00 0.00 76 1010.1
20260506103026 18 212 0.0 0.0 0.00 0.00 0.00 69 1008.4
20260506101536 18 70 1.6 6.4 0.00 0.00 0.00 76 1010.0
20260506101518 18 224 0.0 0.0 0.00 0.00 0.00 69 1008.2
20260506100038 18 77 0.0 6.4 0.00 0.00 0.00 77 1009.9
20260506100016 18 220 0.0 0.0 0.00 0.00 0.00 70 1008.1
20260506094532 17 113 0.0 3.2 0.00 0.00 0.00 77 1009.9
20260506094527 18 214 0.0 0.0 0.00 0.00 0.00 70 1008.1
20260506093052 18 46 1.6 6.4 0.00 0.00 0.00 77 1009.9
20260506093023 18 218 0.0 0.0 0.00 0.00 0.00 69 1008.1
20260506091529 18 54 1.6 8.0 0.00 0.00 0.00 77 1009.9
20260506091513 18 202 0.0 0.0 0.00 0.00 0.00 69 1008.2
20260506090029 18 66 1.6 4.8 0.00 0.00 0.00 77 1010.0
20260506090013 18 221 0.0 0.0 0.00 0.00 0.00 70 1008.3
20260506084529 17 79 0.0 6.4 0.00 0.00 0.00 77 1010.2
20260506084512 18 226 0.0 0.0 0.00 0.00 0.00 70 1008.5
20260506083026 17 77 0.0 1.6 0.00 0.00 0.00 77 1010.1
20260506083010 18 185 0.0 0.0 0.00 0.00 0.00 69 1008.4
20260506081524 18 73 0.0 3.2 0.00 0.00 0.00 76 1010.2
20260506081508 18 162 0.0 0.0 0.00 0.00 0.00 67 1008.5
20260506073019 18 75 0.0 3.2 0.00 0.00 0.00 72 1010.2
20260506073005 18 155 0.0 0.0 0.00 0.00 0.00 63 1008.5
20260506071514 19 115 0.0 4.8 0.00 0.00 0.00 71 1010.3
20260506071507 19 201 0.0 0.0 0.00 0.00 0.00 62 1008.6
20260506061603 19 178 0.0 0.0 0.00 0.00 0.00 60 1008.7
20260506061510 19 108 1.6 4.8 0.00 0.00 0.00 69 1010.3
20260506050107 20 75 1.6 6.4 0.00 0.00 0.00 64 1011.0
20260506044613 20 75 1.6 11.3 0.00 0.00 0.00 63 1010.8
20260506044559 20 179 0.0 0.0 0.00 0.00 0.00 55 1009.2
20260506043057 20 103 0.0 4.8 0.00 0.00 0.00 62 1011.0
20260506043050 20 176 0.0 0.0 0.00 0.00 0.00 53 1009.4
20260506041606 20 345 1.6 4.8 0.00 0.00 0.00 61 1010.9
20260506041553 20 207 0.0 0.0 0.00 0.00 0.00 52 1009.4
20260506040055 21 80 1.6 8.0 0.00 0.00 0.00 60 1010.8
20260506040046 21 203 0.0 0.0 0.00 0.00 0.00 51 1009.2
20260506034550 21 72 0.0 4.8 0.00 0.00 0.00 59 1010.9
20260506034545 21 184 0.0 0.0 0.00 0.00 0.03 50 1009.3
20260506033052 21 68 4.8 12.9 0.00 0.00 0.00 57 1010.8
20260506033043 21 189 0.0 0.0 0.00 0.00 0.03 48 1009.3
20260506031556 21 205 0.0 0.0 0.00 0.00 0.03 47 1009.2
20260506031548 21 82 3.2 8.0 0.00 0.00 0.00 57 1010.6
20260506030057 21 230 0.0 0.0 0.00 0.00 0.03 47 1009.1
20260506030049 21 60 1.6 9.7 0.00 0.00 0.00 56 1010.6
20260506024548 22 53 1.6 9.7 0.00 0.00 0.00 55 1010.6
20260506024543 22 205 0.0 0.0 0.00 0.00 0.03 46 1009.1
20260506023054 22 333 4.8 11.3 0.00 0.00 0.00 55 1010.7
20260506023042 22 196 0.0 0.0 0.00 0.00 0.03 45 1009.2
20260506021548 22 65 3.2 8.0 0.00 0.00 0.00 54 1010.6
20260506021542 22 161 0.0 0.0 0.00 0.00 0.03 45 1009.1
20260506020115 22 70 3.2 6.4 0.00 0.00 0.00 54 1010.5
20260506020041 22 260 0.0 0.0 0.00 0.00 0.03 45 1009.1
20260506014547 22 70 3.2 12.9 0.00 0.00 0.00 53 1010.5
20260506014541 22 219 0.0 0.0 0.00 0.00 0.03 44 1009.1
20260506013046 22 82 0.0 3.2 0.00 0.00 0.00 52 1010.3
20260506011548 23 82 1.6 11.3 0.00 0.00 0.00 49 1010.3
20260506011540 23 166 0.0 0.0 0.00 0.00 0.03 39 1008.8
20260506010045 25 93 1.6 8.0 0.00 0.00 0.00 42 1009.8
20260506010040 25 184 0.0 0.0 0.00 0.00 0.03 32 1008.4
20260506004608 25 159 0.0 0.0 0.00 0.00 0.03 31 1008.2
20260506004545 25 65 1.6 8.0 0.00 0.00 0.00 41 1009.6
20260506003046 25 131 1.6 9.7 0.00 0.00 0.00 39 1009.5
20260506003039 25 183 0.0 0.0 0.00 0.00 0.03 30 1008.1
20260506001549 26 66 3.2 6.4 0.00 0.00 0.00 38 1009.4
20260506001538 26 214 0.0 0.0 0.00 0.00 0.03 29 1008.1
20260506000056 26 72 3.2 11.3 0.00 0.00 0.00 36 1009.2
20260506000043 26 163 0.0 0.0 0.00 0.00 0.03 28 1007.9
20260505234605 26 214 0.0 0.0 0.00 0.00 0.03 25 1007.7
20260505234544 26 91 3.2 14.5 0.00 0.00 0.00 33 1009.1
20260505233048 27 63 3.2 12.9 0.00 0.00 0.00 32 1008.9
20260505233037 26 302 0.0 0.0 0.00 0.00 0.03 24 1007.6
20260505231550 27 51 4.8 14.5 0.00 0.00 0.00 31 1008.5
20260505231538 27 217 0.0 0.0 0.00 0.00 0.03 23 1007.3
20260505230046 27 63 4.8 19.3 0.00 0.00 0.00 29 1008.5
20260505230037 27 202 0.0 0.0 0.00 0.00 0.03 22 1007.1
20260505224547 27 102 3.2 11.3 0.00 0.00 0.00 28 1008.3
20260505224536 27 167 0.0 0.0 0.00 0.00 0.03 21 1007.0
20260505223042 27 195 0.0 0.0 0.00 0.00 0.03 20 1006.9
20260505221547 28 4 6.4 19.3 0.00 0.00 0.00 27 1008.2
20260505221539 27 193 0.0 0.0 0.00 0.00 0.03 20 1007.0
20260505220038 28 186 3.2 12.9 0.00 0.00 0.00 27 1008.0
20260505220035 28 224 0.0 0.0 0.00 0.00 0.03 20 1006.8
20260505214542 28 43 6.4 20.9 0.00 0.00 0.00 28 1007.8
20260505214540 28 208 0.0 0.0 0.00 0.00 0.03 21 1006.5
20260505213036 28 339 4.8 17.7 0.00 0.00 0.00 29 1007.8
20260505213034 28 212 0.0 0.0 0.00 0.00 0.03 22 1006.5
20260505211559 28 136 6.4 19.3 0.00 0.00 0.00 28 1007.6
20260505211533 28 203 0.0 0.0 0.00 0.00 0.03 21 1006.3
20260505210040 28 313 6.4 17.7 0.00 0.00 0.00 28 1007.8
20260505210033 28 241 0.0 0.0 0.00 0.00 0.03 22 1006.3
20260505204534 29 349 4.8 12.9 0.00 0.00 0.00 29 1007.7
20260505204531 28 224 0.0 0.0 0.00 0.00 0.03 22 1006.3
20260505203030 29 1 8.0 25.7 0.00 0.00 0.00 29 1007.6
20260505201531 29 345 3.2 14.5 0.00 0.00 0.00 29 1007.6
20260505200034 28 143 0.0 0.0 0.00 0.00 0.03 22 1006.5
20260505200028 30 208 6.4 20.9 0.00 0.00 0.00 29 1007.8
20260505194528 29 233 0.0 0.0 0.00 0.00 0.03 22 1006.5
20260505194526 30 333 8.0 12.9 0.00 0.00 0.00 28 1007.9
20260505193027 28 185 0.0 0.0 0.00 0.00 0.03 23 1006.9
20260505193023 30 63 3.2 14.5 0.00 0.00 0.00 30 1008.3
20260505191525 28 191 0.0 0.0 0.00 0.00 0.03 21 1007.2
20260505190024 28 131 0.0 0.0 0.00 0.00 0.03 23 1007.4
20260505190019 30 85 4.8 12.9 0.00 0.00 0.00 30 1008.7
20260505184527 29 194 0.0 0.0 0.00 0.00 0.03 24 1007.6
20260505184517 30 338 4.8 12.9 0.00 0.00 0.00 31 1009.2
20260505183038 28 244 0.0 0.0 0.00 0.00 0.03 26 1007.6
20260505183015 30 65 3.2 19.3 0.00 0.00 0.00 33 1009.1
20260505181520 29 231 0.0 0.0 0.00 0.00 0.03 25 1007.9
20260505181512 30 5 6.4 14.5 0.00 0.00 0.00 32 1009.3
20260505180019 29 215 0.0 0.0 0.00 0.00 0.03 25 1007.8
20260505180010 30 63 4.8 12.9 0.00 0.00 0.00 32 1009.5
20260505174517 29 170 0.0 0.0 0.00 0.00 0.03 27 1008.0
20260505174507 30 62 1.6 9.7 0.00 0.00 0.00 35 1009.5
20260505173020 28 168 0.0 0.0 0.00 0.00 0.03 27 1008.1
20260505173004 30 90 1.6 9.7 0.00 0.00 0.00 35 1009.7
20260505171605 29 79 3.2 8.0 0.00 0.00 0.00 37 1009.8
20260505171511 28 149 0.0 0.0 0.00 0.00 0.03 28 1008.2
20260505170057 28 88 1.6 8.0 0.00 0.00 0.00 37 1009.9
20260505170011 27 226 0.0 0.0 0.00 0.00 0.03 27 1008.2
20260505164554 28 120 3.2 12.9 0.00 0.00 0.00 38 1010.2
20260505164507 27 210 0.0 0.0 0.00 0.00 0.03 29 1008.5
20260505163053 28 117 1.6 4.8 0.00 0.00 0.00 38 1010.4
20260505163007 27 204 0.0 0.0 0.00 0.00 0.03 29 1008.6
20260505161551 28 68 0.0 6.4 0.00 0.00 0.00 39 1010.5
20260505161504 27 207 0.0 0.0 0.00 0.00 0.03 30 1008.8
20260505153057 25 211 0.0 0.0 0.00 0.00 0.03 35 1009.2
20260505153043 26 358 0.0 6.4 0.00 0.00 0.00 44 1011.0
20260505151553 25 197 0.0 0.0 0.00 0.00 0.03 36 1009.4
20260505151535 25 33 1.6 8.0 0.00 0.00 0.00 45 1011.2